Vertical_Velocity
-9 7 15 12 -0 -3 -2 -0 3 5 1 3 3 7 7 11 4 2 -0 -5 -3 -6 2 2 2 -4 -0 0 -3 2 -5 -3 -2 -3 -2 -1 -1 0 -2 -1 -2 -3 -3 -1 -0 0 -5 -0 -2 -3 -3 -3 -0 -3
5 -1 7 3 8 0 -0 -2 -5 1 3 2 -0 -1 -6 -2 2 3 -15 3 -10 -16 -3 8 2 2 3 -4 -17 -1 -1 -0 -1 -3 -0 -1 -0 -1 -1 -2 -2 -6 -8 -7 -9 -10 -1 -1 -3 -1 -2 -2 -1 -2
-4 4 2 5 3 7 3 1 -1 0 -2 2 -0 1 0 -1 -2 0 -5 1 6 -14 0 -3 4 5 -2 3 5 -15 0 -1 -1 0 -4 -0 -3 -3 -2 -3 -1 -1 0 -1 -2 -3 -1 -0 -0 2 -1 -0 -2 0
-3 7 -3 2 8 11 2 2 2 -1 0 2 1 2 1 1 1 -1 -7 -2 -8 -6 -8 5 1 0 3 2 -2 -5 -9 -3 -4 1 -2 -1 -2 -1 -1 -4 -3 -5 -2 -2 -3 -1 -0 1 1 2 1 0 0 2
-1 2 -1 -1 3 3 7 1 0 3 -1 4 -1 -2 -1 -5 3 1 -4 -4 -1 -5 -5 1 3 3 3 2 -5 -1 0 -2 -1 -3 -2 -1 -0 -2 0 -2 -1 -2 -6 -5 -8 -1 -2 -1 1 2 -1 -1 -2 0
-1 1 0 5 -0 6 -0 2 2 2 1 1 1 2 -2 -2 0 -2 -10 -1 2 -6 -13 -3 4 4 2 5 -1 -4 -2 -2 -2 -2 1 -0 -0 -1 -2 -0 -4 -2 -2 0 -1 -0 0 1 1 1 0 0 -4 -1
-1 -2 -1 3 1 -2 10 -0 4 2 -1 2 1 -1 2 -2 -1 -7 -1 -1 -2 -2 -6 -0 0 2 8 1 1 2 1 -2 -3 -1 -1 -1 -0 -1 -0 -0 -3 1 0 0 1 6 -0 -0 0 1 1 1 1 -2
-1 -2 -2 0 1 -1 7 5 4 7 2 3 3 -1 -3 -2 -4 -3 0 -0 -1 -7 -4 -3 1 -1 6 1 -2 1 -1 -1 -0 0 0 -0 1 1 0 -4 1 1 1 1 -1 -3 -1 1 1 1 1 1 0 -2
-2 -1 -2 -1 2 0 -1 6 -3 -2 16 11 1 -1 -0 -4 -5 -1 5 1 -5 -7 -4 -2 -3 -1 2 1 -0 -0 0 -2 -1 -1 -0 -2 0 -2 -1 1 1 3 1 -2 -1 -2 -0 0 -0 -0 1 1 1 -1
-1 -1 -2 -1 2 1 2 0 12 12 -0 7 -2 -5 -6 -1 -2 -5 -3 -7 -6 -3 -2 -2 1 0 -1 1 0 -2 -0 -0 -1 -5 0 1 -2 2 1 0 3 0 -1 1 -1 -1 -1 -1 -1 -0 0 1 -0 -0
-0 -2 -1 -1 0 -2 0 3 17 3 5 -8 -5 -3 5 1 -0 -3 -3 -4 -1 -3 -1 1 -0 -2 -1 -4 -2 1 -1 -0 -0 -4 -3 -1 -1 2 1 -0 2 3 1 -1 -1 -0 -0 1 1 2 1 1 0 1
-0 -0 0 -0 0 -1 2 -3 28 -7 -1 -3 -22 -3 -2 -0 -2 -8 -1 -1 -1 -1 0 -2 -1 0 -0 -1 -4 1 -1 0 -2 -1 1 -1 -2 1 1 0 -0 1 -0 -1 -1 -1 -1 -2 -1 -2 -0 0 -0 0
0 0 -0 -2 -3 -1 3 30 3 11 -3 -3 -15 -5 0 0 -7 -4 -1 0 -1 -1 -1 -0 -2 -1 -1 -0 -0 -2 1 -3 -0 0 -3 -4 -0 1 -0 0 -0 -0 -1 -1 -1 -1 -1 -1 -1 -2 -2 -1 -1 0
2 2 1 -0 -1 -5 20 7 6 9 -1 -10 -4 -1 -6 2 -1 -3 -2 -3 -2 -0 -2 -2 -1 -3 -0 -1 -1 -2 -5 1 -1 -1 -6 -2 -3 -1 0 -0 -0 -1 -1 -0 -1 -0 -1 -2 -3 -3 -2 -1 -0 0
4 4 3 1 -3 -3 -3 25 15 6 -9 -5 -2 -2 -0 -1 2 1 1 1 1 2 -4 -0 -0 -0 0 -2 -1 -2 3 -0 -3 -6 -3 -0 -1 -1 -1 -1 -0 0 -0 -0 -1 -1 -1 -1 -2 -2 -2 -2 -2 -2
3 7 3 0 2 -1 12 3 4 1 -0 -2 -1 -1 -1 -1 3 0 1 -1 0 2 4 0 -1 -1 -1 -2 0 -2 -2 -4 -8 -1 0 -0 -1 1 -1 -0 1 -1 -1 -1 -0 -0 -0 -0 -0 -0 -1 -1 -1 -2
1 -8 5 5 -1 -2 7 5 3 2 1 -2 -0 3 2 -1 -3 2 -2 -1 -1 3 -2 -1 -1 -9 -4 -1 1 -1 -4 -4 -2 -0 -1 1 -3 -2 -0 -0 -0 -1 -1 -1 -1 -0 -0 -1 -0 -0 -1 -0 -0 -0
-2 1 5 3 -22 -6 13 -1 -0 -3 -2 1 -2 2 2 0 -0 -0 -1 -2 -1 -0 -0 -2 -3 0 -1 -2 -2 -3 -1 1 -0 -1 0 -0 0 1 0 -1 -1 -0 -1 -1 -0 -1 -1 -1 -1 -1 -1 -0 -0 0
-6 -11 -7 10 5 -14 -1 -1 0 -3 1 0 1 -0 -1 -1 -1 1 -1 -2 -1 1 2 -1 -1 -1 -3 -2 -2 -1 -1 -4 -7 -1 1 2 2 -0 -1 -1 -1 -1 -1 -1 -1 -1 -0 -0 -1 -1 -1 -0 -1 -1
2 -0 5 -10 -18 -2 0 0 -1 -2 -1 -0 1 -0 1 -0 1 0 0 1 2 0 -1 -0 -2 -2 -1 -1 -0 0 0 -0 -4 -3 1 0 0 0 0 0 -0 -1 -1 -0 0 0 -1 -0 0 0 0 0 -0 -0
1 -4 -10 -5 -4 -1 -1 -0 -2 1 -1 -1 2 0 -0 1 -0 0 0 0 -1 -1 -1 -1 -2 -2 -2 -1 -1 -0 0 -2 -7 -3 -8 -5 -1 0 -1 -1 -0 -1 -0 0 -1 -1 -0 1 0 1 0 0 0 0
-4 4 -3 -1 -0 2 -2 2 -2 -1 -3 -0 0 1 -1 -0 0 0 -0 -1 -2 -2 -1 -2 -2 -2 -2 -0 -2 1 2 -0 2 -2 -0 0 -7 -4 -2 -1 -2 -1 -0 -0 -0 -0 -0 -0 0 0 0 1 1 1
-3 -2 -0 1 -2 -1 -1 0 2 3 -3 -0 1 -1 -0 -1 -0 -0 -1 -1 -1 -1 -1 -0 0 -0 0 -0 -1 1 2 1 -3 -1 -1 -0 0 -0 -1 -1 -0 -1 -1 -1 -1 -1 -1 0 -0 -1 -1 0 0 0
9 7 3 -0 -1 -1 1 -1 -0 -1 0 -0 -1 0 1 -0 1 0 -1 -1 0 -1 0 0 0 -2 0 2 0 -0 -0 0 1 1 1 -2 -3 -2 -0 0 -1 -1 -0 -1 -1 -1 -1 -2 -2 -2 -1 -1 -1 -0
1 -2 -0 -0 0 -2 -1 -0 0 -1 -0 -0 -1 -0 -1 1 -1 -0 -1 -3 -1 -2 -0 1 2 3 -2 -1 1 1 1 -0 -4 -4 -1 1 -1 -1 -1 -1 -1 -1 -1 -1 -1 -1 -1 -1 -0 -0 -1 -1 -2 -1
-5 -1 -3 0 0 -2 -1 -1 -0 -1 -1 -0 -0 1 0 -2 -1 -3 -3 -1 -2 -1 -4 -5 -5 -2 1 2 -4 -4 -2 -2 2 2 0 -2 -1 -0 -1 -2 -2 -1 -1 -1 -1 -1 -1 -0 -0 -0 0 0 -1 -0
-2 -2 0 0 1 0 -1 1 1 -2 -0 -1 -1 -0 -2 -1 -2 -6 -1 -0 -1 -1 0 1 -1 -1 -2 -3 2 3 2 0 1 4 3 -0 0 1 1 -2 -2 -0 -1 -1 -1 -1 -1 -0 -0 -1 -1 -1 -0 -1
0 0 -3 -0 -1 -0 -2 -0 -0 -1 -1 1 -1 -2 -3 -5 -6 -1 -1 -1 -1 -0 -0 2 3 3 1 1 0 -3 -2 -1 -1 1 1 1 -0 -1 -2 -2 -2 -1 -2 -2 -1 -1 -1 -1 -1 -1 -1 -0 -1 -0
-0 0 0 -1 -0 -0 0 -1 -1 1 0 1 -2 -1 -3 -1 -1 -1 -2 -1 -1 -1 -0 -2 -2 0 3 3 3 3 1 -3 -6 -5 -2 -2 -2 -3 -2 -1 -1 -1 -0 0 -0 -1 -1 -1 -1 -1 -1 -1 -1 -1
-0 -0 -2 -0 -1 -1 0 0 0 0 0 -0 -0 -1 -1 -2 -1 0 -0 -1 -1 -1 1 3 2 -2 -2 -2 -3 -1 0 0 2 2 -1 -4 -0 -0 -1 -1 -0 -0 -0 -1 -1 -1 -1 -2 -2 -2 -1 -1 -1 -1
0 0 -1 -0 -1 -0 -0 -0 -0 -0 0 0 1 1 -1 -1 -1 0 3 3 2 2 2 1 2 1 -0 -3 -4 -2 -3 -2 0 0 -2 -1 -1 -1 -1 -1 -1 -1 -2 -2 -1 -1 -2 -2 -2 -2 -1 -1 -1 -2
-0 -0 -1 -1 -1 0 0 -0 -0 -0 0 -0 0 0 0 -1 0 2 2 2 2 1 1 4 1 -4 -0 3 4 5 0 6 0 -0 -0 -0 0 0 0 -1 -1 -1 -2 -2 -2 -1 -2 -2 -1 -1 -2 -1 -1 -1
-0 0 -0 -0 -1 -0 -1 -0 -1 -1 -0 -1 0 0 1 1 1 2 2 1 1 3 4 6 6 6 6 6 6 4 3 0 2 2 1 0 2 2 1 -1 -0 -0 -1 -1 -2 -1 -1 -1 -0 -1 -0 0 -0 -0
Height
1328 1325 1328 1333 1338 1343 1347 1351 1356 1360 1364 1368 1372 1376 1381 1385 1388 1393 1396 1399 1402 1414 1425 1427 1428 1433 1438 1442 1451 1460 1465 1468 1471 1477 1479 1485 1485 1483 1484 1483 1485 1490 1497 1506 1499 1500 1498 1488 1488 1488 1497 1494 1493 1491
1331 1330 1330 1334 1340 1345 1350 1354 1359 1364 1367 1371 1375 1380 1385 1390 1394 1398 1399 1401 1406 1415 1428 1429 1431 1435 1438 1442 1447 1457 1461 1462 1466 1473 1479 1480 1484 1489 1486 1493 1487 1498 1492 1494 1493 1493 1486 1487 1488 1491 1492 1492 1491 1490
1333 1334 1334 1336 1342 1348 1353 1358 1363 1367 1371 1375 1379 1384 1389 1394 1398 1402 1405 1408 1410 1420 1430 1434 1438 1441 1445 1447 1449 1453 1459 1462 1464 1466 1472 1480 1484 1486 1493 1491 1491 1486 1485 1489 1487 1485 1483 1484 1487 1488 1488 1488 1488 1488
1336 1337 1338 1339 1343 1349 1355 1361 1366 1371 1376 1381 1385 1389 1394 1398 1401 1406 1407 1411 1415 1422 1431 1441 1442 1446 1449 1450 1451 1453 1456 1462 1465 1468 1471 1479 1482 1483 1489 1488 1490 1488 1486 1488 1487 1482 1481 1482 1484 1485 1485 1485 1486 1486
1339 1340 1342 1345 1346 1351 1358 1364 1370 1375 1380 1384 1389 1393 1397 1402 1405 1408 1412 1416 1419 1424 1433 1441 1445 1449 1451 1453 1454 1457 1460 1462 1466 1470 1474 1480 1480 1484 1486 1487 1489 1481 1483 1489 1489 1479 1480 1481 1482 1483 1483 1482 1483 1483
1341 1343 1346 1349 1352 1354 1360 1366 1372 1379 1384 1389 1393 1398 1402 1406 1409 1412 1417 1422 1422 1425 1432 1443 1450 1451 1453 1456 1458 1461 1464 1466 1468 1470 1474 1477 1480 1482 1488 1484 1475 1476 1476 1477 1477 1478 1479 1481 1481 1482 1482 1481 1480 1480
1343 1346 1349 1352 1356 1359 1363 1368 1373 1381 1387 1393 1398 1403 1407 1409 1413 1415 1419 1423 1426 1428 1432 1444 1451 1455 1457 1459 1462 1464 1466 1468 1470 1473 1475 1478 1479 1480 1483 1481 1473 1473 1474 1475 1476 1477 1478 1479 1480 1480 1480 1480 1479 1478
1346 1349 1352 1356 1359 1362 1366 1370 1376 1383 1389 1396 1401 1406 1410 1414 1417 1420 1422 1426 1429 1430 1435 1445 1453 1455 1458 1459 1463 1465 1467 1470 1472 1474 1477 1477 1478 1479 1479 1472 1472 1472 1474 1475 1476 1477 1478 1479 1479 1479 1479 1479 1478 1476
1348 1352 1355 1359 1362 1365 1369 1373 1379 1384 1391 1397 1403 1409 1415 1419 1421 1425 1427 1430 1432 1436 1438 1444 1451 1458 1458 1460 1464 1466 1468 1473 1474 1474 1474 1477 1477 1475 1470 1470 1470 1472 1473 1474 1475 1477 1478 1478 1478 1478 1478 1477 1476 1475
1350 1354 1358 1362 1365 1369 1373 1378 1381 1387 1393 1400 1408 1413 1420 1425 1427 1430 1434 1434 1436 1437 1441 1445 1449 1452 1457 1460 1464 1467 1468 1472 1477 1474 1474 1475 1471 1469 1470 1470 1471 1472 1473 1475 1475 1476 1477 1477 1477 1477 1476 1475 1475 1474
1351 1356 1360 1365 1369 1372 1376 1381 1386 1388 1396 1401 1408 1416 1424 1428 1430 1432 1435 1438 1441 1443 1444 1447 1450 1452 1457 1460 1463 1465 1469 1470 1474 1471 1473 1470 1468 1468 1470 1471 1471 1472 1473 1474 1475 1475 1476 1476 1476 1476 1475 1474 1474 1473
1353 1357 1362 1367 1371 1375 1379 1383 1386 1389 1396 1402 1407 1420 1427 1429 1431 1436 1444 1442 1442 1443 1445 1448 1451 1452 1457 1459 1461 1467 1468 1471 1471 1468 1469 1471 1466 1466 1469 1470 1472 1472 1473 1473 1474 1474 1475 1475 1475 1474 1474 1473 1473 1472
1355 1360 1365 1369 1373 1378 1383 1386 1390 1393 1399 1408 1416 1423 1426 1433 1440 1441 1446 1443 1444 1441 1444 1446 1451 1453 1456 1458 1462 1465 1467 1470 1466 1469 1468 1462 1462 1465 1468 1470 1471 1473 1473 1473 1474 1474 1474 1474 1474 1474 1473 1473 1472 1472
1358 1363 1367 1371 1376 1380 1384 1389 1393 1397 1401 1409 1416 1425 1425 1432 1433 1430 1431 1432 1434 1436 1440 1444 1448 1451 1455 1458 1459 1462 1466 1464 1472 1476 1466 1458 1460 1464 1467 1469 1471 1472 1473 1473 1474 1474 1474 1474 1474 1474 1474 1474 1473 1472
1361 1366 1370 1374 1379 1383 1386 1391 1396 1398 1402 1411 1413 1422 1425 1423 1424 1425 1429 1431 1434 1436 1440 1445 1448 1450 1454 1458 1458 1461 1462 1459 1463 1464 1457 1454 1458 1462 1466 1468 1470 1471 1472 1473 1473 1474 1475 1475 1475 1475 1476 1475 1475 1474
1364 1369 1372 1377 1381 1385 1389 1393 1396 1400 1406 1410 1415 1419 1422 1422 1424 1427 1429 1432 1434 1437 1442 1444 1448 1452 1454 1454 1454 1463 1463 1466 1457 1451 1452 1454 1459 1462 1465 1468 1469 1471 1472 1473 1474 1475 1476 1477 1477 1478 1477 1477 1477 1476
1367 1370 1376 1380 1384 1386 1391 1396 1398 1401 1404 1409 1416 1419 1419 1420 1423 1427 1430 1433 1435 1439 1441 1443 1450 1450 1450 1453 1450 1450 1454 1449 1448 1450 1452 1455 1459 1462 1465 1468 1469 1471 1472 1474 1476 1477 1478 1478 1479 1479 1478 1478 1478 1477
1371 1375 1379 1381 1386 1390 1393 1396 1399 1404 1412 1416 1417 1419 1418 1420 1424 1428 1430 1433 1436 1437 1438 1441 1441 1446 1453 1449 1451 1442 1443 1446 1448 1450 1453 1457 1460 1463 1466 1467 1470 1471 1473 1475 1476 1477 1478 1479 1479 1479 1479 1479 1478 1478
1375 1379 1384 1388 1390 1395 1398 1402 1404 1410 1416 1416 1417 1419 1421 1424 1426 1428 1430 1433 1435 1436 1437 1440 1444 1444 1442 1436 1435 1436 1439 1441 1446 1451 1455 1458 1461 1463 1465 1468 1470 1471 1473 1475 1477 1478 1479 1479 1479 1478 1478 1479 1479 1478
1382 1386 1389 1393 1395 1398 1401 1405 1408 1409 1415 1418 1420 1422 1423 1425 1427 1429 1431 1433 1434 1435 1437 1438 1436 1432 1433 1433 1434 1435 1438 1441 1444 1449 1454 1458 1461 1463 1465 1468 1470 1472 1474 1475 1477 1478 1479 1480 1479 1479 1479 1478 1478 1478
1388 1392 1396 1398 1399 1400 1403 1406 1408 1412 1416 1419 1420 1422 1425 1427 1429 1430 1431 1432 1434 1434 1432 1430 1430 1431 1432 1433 1434 1436 1439 1442 1444 1448 1450 1455 1460 1463 1465 1468 1470 1472 1474 1476 1477 1478 1479 1479 1479 1479 1479 1479 1479 1478
1391 1395 1398 1400 1402 1404 1406 1409 1411 1415 1419 1421 1423 1424 1426 1427 1427 1429 1430 1431 1430 1426 1427 1427 1428 1429 1431 1433 1434 1438 1441 1443 1447 1449 1452 1456 1458 1461 1464 1467 1470 1472 1474 1475 1477 1477 1478 1478 1478 1478 1478 1479 1479 1478
1395 1397 1398 1400 1402 1406 1413 1412 1413 1415 1418 1421 1422 1423 1425 1426 1427 1429 1429 1427 1423 1422 1423 1424 1426 1428 1431 1433 1435 1439 1442 1444 1447 1449 1453 1456 1459 1462 1465 1467 1469 1471 1473 1474 1475 1476 1476 1477 1477 1477 1478 1477 1477 1477
1396 1397 1398 1399 1401 1407 1408 1410 1412 1415 1419 1421 1422 1425 1426 1426 1427 1427 1427 1420 1418 1418 1419 1421 1424 1426 1430 1433 1435 1438 1441 1444 1447 1450 1453 1455 1458 1461 1464 1466 1468 1470 1472 1473 1474 1475 1476 1476 1476 1476 1476 1476 1476 1476
1398 1402 1402 1403 1405 1407 1409 1412 1414 1416 1421 1422 1423 1425 1425 1426 1429 1429 1425 1416 1414 1415 1417 1420 1423 1426 1428 1431 1434 1437 1440 1443 1445 1448 1452 1455 1457 1460 1462 1465 1466 1468 1470 1471 1472 1473 1474 1475 1475 1475 1475 1475 1474 1474
1402 1404 1404 1404 1406 1407 1410 1414 1414 1416 1418 1420 1422 1422 1423 1425 1430 1428 1418 1413 1412 1412 1414 1416 1419 1423 1427 1430 1432 1435 1438 1442 1445 1448 1451 1453 1457 1459 1461 1463 1465 1467 1468 1469 1470 1471 1471 1472 1472 1472 1473 1473 1473 1472
1406 1405 1405 1405 1405 1406 1408 1410 1411 1413 1417 1420 1420 1423 1425 1430 1429 1416 1412 1411 1411 1411 1413 1417 1420 1423 1426 1429 1433 1436 1439 1441 1444 1448 1450 1452 1455 1458 1460 1462 1463 1465 1466 1467 1468 1468 1468 1468 1468 1469 1469 1470 1470 1470
1404 1405 1407 1406 1406 1407 1408 1410 1412 1413 1413 1414 1417 1421 1423 1421 1417 1412 1412 1412 1412 1412 1413 1416 1420 1423 1426 1429 1432 1434 1437 1440 1443 1446 1449 1451 1453 1455 1457 1459 1461 1462 1463 1464 1465 1465 1465 1465 1466 1466 1467 1467 1467 1467
1405 1405 1406 1407 1407 1407 1407 1409 1409 1410 1411 1413 1414 1415 1413 1412 1411 1412 1412 1412 1412 1412 1413 1414 1417 1421 1424 1427 1430 1433 1436 1438 1440 1443 1446 1448 1450 1453 1454 1456 1458 1459 1460 1461 1462 1463 1463 1464 1464 1465 1465 1466 1466 1466
1406 1406 1407 1408 1409 1409 1409 1409 1410 1410 1411 1411 1412 1411 1411 1410 1410 1411 1411 1411 1411 1411 1412 1414 1416 1418 1421 1424 1427 1431 1434 1437 1440 1443 1445 1446 1448 1450 1451 1453 1455 1457 1458 1459 1460 1461 1462 1462 1463 1464 1465 1465 1465 1464
1406 1406 1407 1408 1409 1409 1409 1409 1409 1409 1409 1409 1409 1409 1409 1408 1408 1408 1408 1408 1409 1410 1411 1413 1415 1418 1421 1424 1426 1429 1431 1435 1438 1440 1441 1443 1445 1447 1449 1451 1453 1454 1456 1457 1458 1459 1460 1461 1462 1463 1463 1463 1463 1463
1407 1407 1408 1409 1409 1409 1408 1408 1408 1407 1407 1406 1406 1406 1406 1406 1407 1406 1405 1405 1406 1408 1410 1413 1416 1418 1421 1423 1426 1429 1431 1433 1435 1437 1439 1442 1443 1445 1447 1449 1451 1452 1454 1455 1456 1457 1458 1459 1460 1461 1461 1461 1461 1461
1408 1408 1408 1408 1408 1408 1409 1408 1407 1406 1406 1405 1405 1406 1406 1406 1406 1407 1406 1405 1405 1406 1410 1412 1415 1417 1419 1422 1424 1426 1428 1430 1432 1434 1437 1439 1441 1443 1445 1447 1448 1450 1451 1453 1454 1456 1457 1458 1459 1460 1460 1460 1460 1459